Date,TemperatureHighF,TemperatureAvgF,TemperatureLowF,DewpointHighF,DewpointAvgF,DewpointLowF,HumidityHigh,HumidityAvg,HumidityLow,PressureMaxIn,PressureMinIn,WindSpeedMaxMPH,WindSpeedAvgMPH,GustSpeedMaxMPH,PrecipitationSumIn
2013-9-1,99.3,87.1,74.1,65.2,61.3,55.1,71,45,29,27.20,27.05,13,2,13,0.00
2013-9-2,97.0,85.2,76.5,64.5,59.8,54.7,64,44,27,27.26,27.05,11,2,13,0.00
2013-9-3,102.6,80.9,70.0,74.4,62.6,55.8,93,57,26,27.20,27.11,26,2,26,0.47
2013-9-4,99.9,84.3,70.3,67.2,59.4,52.0,80,47,25,27.23,27.11,14,1,14,0.00
2013-9-5,102.6,88.3,72.5,58.4,52.1,45.8,50,31,17,27.20,27.11,19,3,19,0.00
2013-9-6,100.0,85.8,74.8,60.6,55.4,50.3,54,36,25,27.23,27.08,16,3,22,0.00
2013-9-7,89.1,80.3,74.3,68.0,62.7,57.5,74,56,40,27.26,27.11,11,4,11,0.00
2013-9-8,86.5,76.6,72.1,70.1,66.5,61.8,91,72,45,27.17,27.05,11,3,11,0.07
2013-9-9,82.4,74.4,68.2,72.6,68.4,64.8,95,82,61,27.11,26.99,15,2,17,0.93
2013-9-10,86.2,75.5,66.2,67.9,62.6,54.9,96,68,39,27.17,27.08,17,2,17,0.17
2013-9-11,90.5,75.5,66.9,66.9,61.3,51.7,90,66,31,27.23,27.11,15,1,15,0.00
2013-9-12,94.3,81.1,68.5,62.8,58.5,51.3,77,49,29,27.17,27.02,13,2,13,0.00
2013-9-13,97.3,84.5,72.5,66.8,59.8,46.3,78,47,19,27.08,26.90,12,2,12,0.00
2013-9-14,99.3,86.3,75.6,64.4,58.4,51.8,65,41,26,27.02,26.93,14,3,14,0.00
2013-9-15,99.3,86.1,73.8,62.2,57.6,52.8,63,40,24,27.08,26.99,18,2,18,0.00
2013-9-16,99.7,88.8,77.5,62.7,57.4,53.5,50,36,22,27.11,27.02,16,4,16,0.00
2013-9-17,100.4,89.5,79.5,61.3,56.3,51.6,46,34,21,27.11,26.93,14,3,17,0.00
2013-9-18,99.0,87.2,74.3,60.6,42.5,-4.6,56,26,2,27.05,26.93,11,2,11,0.00
2013-9-19,98.1,84.5,69.4,55.7,47.0,38.2,47,29,17,27.08,26.96,12,2,12,0.00
2013-9-20,99.9,83.7,69.6,57.7,50.0,38.2,44,32,20,27.14,27.02,17,3,17,0.00
2013-9-21,97.5,84.9,73.8,61.3,55.7,52.2,53,38,26,27.14,26.96,13,4,15,0.00
2013-9-22,93.9,82.5,71.2,64.0,54.1,38.2,56,39,27,27.02,26.90,18,5,20,0.00
2013-9-23,90.0,76.2,60.6,48.1,23.2,-16.9,44,22,2,27.17,27.02,8,1,9,0.00
2013-9-24,95.7,79.3,61.3,46.2,12.6,-20.0,38,16,2,27.23,27.05,11,1,11,0.00
2013-9-25,72.5,71.4,71.1,-12.8,-13.5,-13.8,3,3,3,27.11,27.11,5,1,5,0.00
2013-9-29,84.2,75.3,67.8,34.1,28.5,10.4,28,19,7,27.23,27.20,8,1,8,0.00
2013-9-30,91.0,74.5,58.8,45.3,15.7,-20.0,39,18,2,27.23,27.11,10,1,11,0.00